LUR-1

operational
NORAD ID: 60506 Int'l Des: 2024-149 Owner: AVS Country: E
LEOCIRCULARRETROGRADESSO

LUR-1について

説明を読み込み中...

リアルタイム位置

3D地球を読み込み中...

次回通過

高度履歴

Altitude vs Time

uPlot chart will show altitude changes over time

軌道要素

1 60506U 24149AQ 26062.18399840 .00009403 00000-0 34142-3 0 9998
2 60506 97.3813 141.8718 0003321 340.0029 20.1080 15.28515001 85773
Epoch: Mar 3, 2026 • Age: 24 hours

現在のステータス

高度 494.6 km
速度 7.62 km/s
衛星直下点 82.66°N, 102.26°W
打ち上げ日 Aug 16, 2024
運用期間 1.5 years
タイプ other

技術仕様

分類 Payload
質量 57.00 kg
乾燥質量 57.00 kg
総質量 57.00 kg
長さ 0.30 m
直径 0.50 m
スパン 0.50 m
形状 Box
製造者 AVS
バスタイプ LUR
フェーズステータス In Orbit
所有者/国 AVS/E

大規模コンステレーション

Loading constellations...